Location: Riverside Cemetery
(38.3047°N, 99.7773°W)
Time: 06:55:34
(UTC+00:00)

USA 186 - Pass Details

Date: 19 September 2020
Orbit: 261 x 425 km, 96.9° (Epoch: 12 October)

Event Time Altitude Azimuth Distance (km) Brightness Sun altitude
Exits shadow 02:26:57 66° 304° (NW) 441 2.0 -21.1°
Drops below altitude 10° 02:29:51 10° 345° (NNW) 1,483 5.0 -21.6°
Sets 02:31:54 0° 347° (NNW) 2,370 6.0 -22.0°
